Location: Unspecified
(49.2170°N, 0.0000°E)
Time: 17:27:47
(UTC+00:00)

Vanguard 3 - Pass Details

Date: 04 July 2019
Orbit: 507 x 3264 km, 33.4° (Epoch: 17 July)

Event Time Altitude Azimuth Distance (km) Brightness Sun altitude
Rises 05:49:02 0° 204° (SSW) 6,943 11.5 14.7°
Reaches altitude 10° 05:54:51 10° 192° (SSW) 6,114 11.4 15.6°
Maximum altitude 06:09:02 26° 147° (SSE) 4,895 11.5 17.9°
Drops below altitude 10° 06:21:49 10° 100° (E) 5,532 12.9 19.9°
Sets 06:26:37 0° 89° (E) 6,192 13.1 20.7°
